Content
SEND FEEDBACK

Daily
Averages
Monthly
Summary
Jamaica

MONTEGO BAY, JAMAICA


Home > Caribbean > Jamaica
Elevation: 10 feet     Latitude: 18 30N     Longitude: 077 55W

WEATHER
 
SELECT A DAY
Number of Records: 168,360;   Date Range: 7/1/96 - 8/31/14
 
SHARE

PRINT THIS DATA

[ ← Previous Day ]
WEATHER ALMANAC - APRIL 18, 2013
[ Next Day → ]
[ °C ]   °F
Weather ElementAverageHighLow
Temperature80 °F87 °F (1:00 pm)75.2 °F (2:00 am)
Dewpoint71.8 °F73.4 °F (11:00 am)68 °F (7:00 am)
Humidity75.1 %89 % (5:35 pm)53 % (1:00 pm)
Barometer29.92 in29.98 in (10:00 pm)29.86 in (3:00 pm)
Wind Speed12.3 mph24.2 mph (2:00 pm)
Weather ElementAverage
Visibility7.8 mi
Wind DirectionESE (109.1 °)

Weather ElementTotal
Precipitation---
Cooling Degree Days16.1 (Base 65)
Growing Degree Days31.1 (Base 50)
Averaged from 33 records on April 18, 2013
WEATHER CONDITIONS BREAKOUT
WIND DIRECTION BREAKOUT
WEATHER BY HOUR - APRIL 18, 2013
[ °C ]   °F
Local TimeTemperatureDewpointHumidityBarometerVisibilityWind DirectionWind SpeedGust SpeedPrecipitationEventsConditions
1:00 AM77.0 °F70.0 °F74 %29.94 in12.0 miSE (140°)4.6 mphScattered Clouds
1:00 AM77.0 °F69.8 °F78 %29.92 in6.2 miSE (140°)4.6 mphPartly Cloudy
2:00 AM75.2 °F69.8 °F83 %29.92 in6.2 miEast (90°)3.5 mphPartly Cloudy
3:00 AM77.0 °F69.8 °F78 %29.89 in6.2 miESE (110°)8.1 mphPartly Cloudy
4:00 AM77.0 °F71.0 °F75 %29.90 in12.0 miESE (110°)10.4 mphScattered Clouds
4:00 AM77.0 °F69.8 °F78 %29.89 in6.2 miESE (110°)10.4 mphPartly Cloudy
5:00 AM77.0 °F71.6 °F83 %29.89 in6.2 miEast (100°)11.5 mphPartly Cloudy
6:00 AM77.0 °F69.8 °F78 %29.92 in6.2 miSE (130°)6.9 mphPartly Cloudy
7:00 AM78.8 °F68.0 °F69 %29.92 in6.2 miSE (130°)11.5 mphScattered Clouds
7:00 AM78.0 °F69.0 °F66 %29.94 in17.0 miSE (130°)11.5 mphScattered Clouds
8:00 AM82.4 °F71.6 °F70 %29.95 in6.2 miESE (110°)13.8 mphScattered Clouds
9:00 AM84.2 °F69.8 °F62 %29.95 in6.2 miEast (90°)15.0 mphPartly Cloudy
10:00 AM85.0 °F72.0 °F56 %29.94 in17.0 miNE (50°)17.3 mphHaze
10:00 AM86.0 °F71.6 °F62 %29.92 in6.2 miNE (50°)17.3 mphPartly Cloudy
11:00 AM86.0 °F73.4 °F66 %29.92 in6.2 miENE (60°)18.4 mphPartly Cloudy
12:00 PM86.0 °F73.4 °F66 %29.92 in6.2 miENE (60°)19.6 mphPartly Cloudy
1:00 PM86.0 °F71.6 °F62 %29.89 in6.2 miENE (60°)21.9 mphScattered Clouds
1:00 PM87.0 °F72.0 °F53 %29.91 in17.0 miENE (60°)21.9 mphHaze
2:00 PM86.0 °F73.4 °F66 %29.89 in6.2 miENE (60°)24.2 mphMostly Cloudy
3:00 PM84.2 °F73.4 °F70 %29.86 in6.2 miEast (80°)18.4 mphScattered Clouds
4:00 PM83.0 °F73.0 °F64 %29.88 in17.0 miENE (70°)20.7 mphHaze
4:00 PM84.2 °F73.4 °F70 %29.86 in6.2 miENE (70°)20.7 mphMostly Cloudy
5:00 PM82.4 °F73.4 °F74 %29.89 in6.2 miEast (80°)16.1 mphMostly Cloudy
5:35 PM77.0 °F73.4 °F89 %29.89 in3.1 miESE (110°)17.3 mphRainRain Showers
5:45 PM77.0 °F73.4 °F89 %29.89 in0.6 miEast (90°)13.8 mphRainRain Showers
6:00 PM77.0 °F73.4 °F89 %29.89 in6.2 miEast (80°)17.3 mphMostly Cloudy
7:00 PM77.0 °F73.0 °F84 %29.94 in6.0 miESE (120°)3.5 mphRainLight Rain Showers
7:00 PM77.0 °F73.4 °F89 %29.92 in6.2 miESE (120°)3.5 mphRainLight Rain Showers
8:00 PM77.0 °F73.4 °F89 %29.95 in6.2 miWNW (290°)8.1 mphMostly Cloudy
9:00 PM77.0 °F73.4 °F89 %29.95 in6.2 miSW (220°)5.8 mphPartly Cloudy
10:00 PM76.0 °F72.0 °F84 %29.98 in12.0 miSouth (190°)1.2 mphScattered Clouds
10:00 PM77.0 °F71.6 °F83 %29.98 in6.2 miSouth (190°)1.2 mphPartly Cloudy
11:00 PM75.2 °F71.6 °F89 %29.98 in6.2 miEast (100°)4.6 mphPartly Cloudy
Hourly data recorded from MKJS, located miles away from Montego Bay, Jamaica







STORIES FROM OUR PARTNERS